IRIDIUM 33 DEB, 35484

Orbit data source: Space-Track

IRIDIUM 33 DEB, 35484 is space debris in LEO originally from a launch on Sun, 14 Sep 1997 UTC launched from the Tyuratam Missile And Space Complex (TTMTR). The debris from Iridium 33, an American commercial communications satellite, has been tracked extensively since its accidental collision with the defunct Russian satellite Cosmos 2251 in 2009. This event, occurring at high speed in low Earth orbit (LEO), generated thousands of pieces of space debris, significantly increasing the risk of further collisions. The Iridium 33 debris cloud has impacted space traffic management and orbital debris mitigation strategies, making it a subject of ongoing study in space situational awareness.

Loading next visibility...
Identifier
35484, 1997-051QE
Orbit
LEO
Country
Flag of USUS
Related business
Manufacturer
Unknown
Mission
Spacecraft
Bus & Motor
Unknown
Mass
Unknown
Launch date (UTC)
1997-09-14 (28 years ago)
Launch vehicle
Unknown
Launch site
Tyuratam Missile And Space Complex (TTMTR)
Object type
Payload
Rocket body
Debris
Shape & HBR
Unknown shape, 0.1 m
Radar Cross Section
Small (<0.1 m²)

Expand to show TLE details & history
Last TLE update: 6 days ago

TLE from 6 days ago
0 IRIDIUM 33 DEB
1 35484U 97051QE  26032.10534709  .00043548  00000-0  31415-2 0  9998
2 35484  86.3639 329.0998 0014580 329.4701  30.5683 15.03851690627711
Epoch: 2026-02-01T02:31Z
TLE epoch observation values (Epoch: 2026-02-01T02:31:41.988Z)
Latitude
-0.00002°
Longitude
159.85509°
Altitude
549.479 km
Speed
7.592 km/s
True Right ascension
21h 56m 23s
True Declination
0° 00' 00"
Sunlit
Object was in daylight at epoch
Visualization orbit readout
Latitude
Unknown
Longitude
Unknown
Altitude
Unknown
Speed
Unknown
Apparent Right ascension
Unknown
Apparent Declination
Unknown
Sunlit
N/A
Visualization observer readout
Local Sidereal Time
12:54:18
Azimuth
Unknown
Elevation
Unknown
Doppler factor
Unknown
Orbital elements
Apogee altitude
562.004 km
Perigee altitude
541.796 km
Semi-major axis
6,930.037 km
Eccentricity
0.00146
Inclination
86.3639°
RAAN
329.0998°
Arg. of periapsis
329.4701°
True anomaly
30.6534°
Mean anomaly
30.5683°
Eccentric anomaly
30.61084°
Mean motion
3.76218 °/min
Orbital period
95.69 mins
BSTAR
0.0031415
Loading maneuver chart data...
Computing Atmospheric mass density...

Documentation

Showing up to 5 results
|